Temperature
14 15 15 16 20 21 23 23 23 22 22 21 21 22 24 24 24 22 17 17 17 17 17 17 17 17 17 17 17 17 17 17 17 17 17 17 17 17 16 16 16 16 16 16 16 16 16 16 16
14 15 15 18 21 22 23 23 22 22 21 19 20 21 22 22 19 17 17 17 17 17 17 17 17 16 16 16 17 17 17 17 17 17 17 17 17 16 16 16 16 16 16 16 16 16 16 16 16
14 14 16 20 21 22 23 22 22 21 19 20 20 20 21 20 17 16 16 17 16 16 16 16 16 16 16 16 16 17 17 17 17 17 17 16 16 16 16 16 16 16 16 16 16 16 16 16 15
14 15 17 20 21 22 22 22 21 20 19 19 20 21 19 16 16 16 17 16 16 16 16 16 16 16 16 16 16 16 17 16 16 16 16 16 16 16 16 16 16 16 16 16 15 15 15 15 15
14 17 19 19 20 21 21 20 19 21 21 20 20 21 19 16 16 16 16 16 15 15 15 16 16 16 16 16 16 16 16 16 16 16 16 16 16 16 16 16 16 15 15 15 15 15 15 15 15
15 17 19 20 20 20 20 19 19 21 21 19 20 21 18 15 16 15 16 15 15 15 15 15 15 16 16 16 16 16 16 16 16 16 16 16 16 16 16 16 15 15 15 15 15 15 15 15 15
16 17 19 20 20 20 20 19 20 21 21 20 19 20 18 15 15 15 15 15 15 15 15 15 15 16 16 16 16 16 16 16 16 16 16 16 16 16 16 15 15 15 15 15 15 15 15 14 14
15 17 18 19 19 20 19 18 18 19 20 18 18 20 19 15 15 15 15 15 15 15 15 15 15 15 15 16 16 16 16 16 16 16 15 15 15 15 15 15 15 15 15 15 15 14 14 14 14
13 16 18 18 19 19 18 18 17 16 17 16 16 17 16 15 15 15 15 15 15 15 15 15 15 15 15 15 15 15 15 15 15 15 15 15 15 15 15 15 15 15 15 14 14 14 14 14 14
14 16 18 18 18 18 18 18 17 17 18 17 16 15 15 15 15 15 15 14 15 15 15 15 15 15 15 15 15 15 15 15 15 15 15 15 15 15 15 15 14 14 14 14 14 14 14 14 14
14 16 17 16 16 16 17 17 16 18 19 19 18 16 15 15 14 14 15 14 15 14 15 15 15 15 15 15 15 15 15 15 15 15 14 14 14 14 14 14 14 14 14 14 14 14 13 13 13
14 15 15 15 14 15 16 16 16 17 18 16 16 15 15 14 14 14 14 14 14 14 14 15 15 15 15 15 15 15 15 14 14 14 14 14 14 14 14 14 14 14 14 14 13 13 13 13 13
14 14 14 13 13 14 15 15 16 16 15 15 15 15 15 14 14 14 14 14 14 14 14 14 14 14 14 14 14 14 14 14 14 14 14 14 14 14 14 14 14 13 13 13 13 13 13 13 13
14 14 13 13 14 14 15 15 15 15 14 14 14 14 14 14 14 14 14 14 14 14 14 14 14 14 14 14 14 14 14 14 14 14 14 14 14 14 13 13 13 13 13 13 13 13 13 13 13
12 13 13 14 14 14 14 15 15 14 14 14 14 14 13 13 14 14 14 14 14 14 14 14 14 14 14 14 14 14 14 14 14 14 14 13 13 13 13 13 13 13 13 13 13 12 12 12 12
13 13 13 14 14 13 14 15 16 14 14 14 14 14 13 13 13 14 14 14 14 14 14 14 14 14 14 14 14 14 14 13 13 13 13 13 13 13 13 13 13 13 13 12 12 12 12 12 12
12 12 13 13 13 14 14 15 15 13 13 14 14 14 13 13 13 13 13 14 14 14 14 14 14 14 13 13 13 13 13 13 13 13 13 13 13 13 13 13 12 12 12 12 12 12 12 12 11
12 13 13 13 13 13 13 14 14 13 13 14 14 13 13 13 13 13 13 13 13 13 13 13 13 13 13 13 13 13 13 13 13 13 13 13 12 12 12 12 12 12 12 12 12 12 11 11 11
12 12 12 13 12 12 13 13 14 13 13 13 13 13 12 12 12 12 12 13 13 13 13 13 13 13 13 13 13 13 13 13 13 13 12 12 12 12 12 12 12 12 12 12 11 11 11 11 11
11 11 12 11 11 12 12 13 13 13 13 12 12 12 12 11 11 11 12 12 13 13 13 13 13 13 13 13 13 13 12 12 12 12 12 12 12 12 12 12 12 12 11 11 11 11 10 10 10
10 11 11 11 10 11 11 12 13 13 12 11 11 11 11 11 11 11 11 12 12 13 13 13 13 13 12 12 12 12 12 12 12 12 12 12 12 12 12 11 11 11 11 11 11 10 10 10 10
9 10 11 10 11 11 11 12 13 13 12 12 11 11 10 10 10 10 10 11 12 12 13 13 12 12 12 12 12 12 12 12 12 12 12 11 11 11 11 11 11 11 11 10 10 10 10 10 9
9 10 10 10 10 10 11 11 13 12 12 12 11 10 9 9 9 9 10 10 11 12 12 12 12 12 12 12 12 12 11 11 11 11 11 11 11 11 11 11 11 10 10 10 10 10 10 9 9
8 9 9 9 9 9 11 11 13 12 12 12 11 10 9 8 8 8 9 9 10 11 11 11 11 11 11 11 11 11 11 11 11 11 11 11 11 11 10 10 10 10 10 10 10 10 9 9 9
8 8 8 8 8 10 11 11 12 11 10 10 10 9 7 7 7 7 8 8 9 10 10 11 11 11 11 11 11 11 11 11 11 11 10 10 10 10 10 10 10 10 10 10 9 9 9 9 9
7 8 9 9 10 10 9 10 11 9 8 8 7 7 6 6 6 7 7 8 8 9 10 10 10 10 10 10 10 10 10 10 10 10 10 10 10 10 10 10 10 9 9 9 9 9 9 8 8
7 8 8 8 9 9 10 9 9 9 8 8 7 6 6 5 5 6 6 7 7 8 9 9 9 9 10 10 10 10 10 9 10 10 9 9 9 9 9 9 9 9 9 9 8 8 8 8 7
7 7 7 7 8 9 10 10 10 8 8 8 7 6 5 4 5 5 6 6 7 7 8 8 8 8 9 9 9 9 9 9 9 9 9 9 8 8 8 8 8 8 8 8 8 8 7 7 7
6 6 7 8 8 9 9 10 9 8 7 7 6 5 4 4 4 4 5 6 6 6 7 7 7 7 8 8 8 8 8 8 8 8 8 8 8 8 8 8 8 7 7 7 7 7 7 7 6
6 6 7 7 6 8 9 9 6 6 6 5 5 4 3 3 3 4 4 5 5 6 6 6 6 7 7 7 7 7 7 7 7 7 7 7 7 7 7 7 7 7 7 6 6 6 6 6 6
Wind_Speed
2 2 3 3 5 6 12 8 5 6 5 3 4 4 5 4 2 2 5 9 12 15 17 18 16 16 16 15 15 15 15 15 14 14 14 13 13 13 12 12 12 12 12 12 13 13 13 13 13
2 3 4 4 7 10 10 9 9 6 4 5 4 4 4 3 2 5 7 10 13 15 16 16 17 16 16 15 15 15 15 14 14 14 13 13 12 12 12 12 12 12 12 12 12 12 12 12 12
4 3 4 5 8 12 8 6 8 5 5 5 5 3 2 3 4 5 7 12 14 15 15 17 17 16 16 15 15 15 14 14 14 13 13 13 12 12 12 12 12 12 12 12 11 12 12 11 11
5 4 4 8 13 11 5 3 5 7 6 4 5 4 3 3 2 5 11 13 15 14 15 17 17 16 16 15 15 14 14 13 13 13 13 12 12 12 12 11 11 11 11 11 11 11 11 11 11
4 5 8 10 13 8 6 3 5 7 7 6 6 4 4 3 4 8 12 13 14 14 14 17 16 16 16 15 15 14 13 13 13 13 12 12 11 11 11 11 11 11 11 10 10 10 10 10 10
6 6 10 14 13 8 7 7 6 7 7 6 6 5 4 4 7 10 12 12 13 13 13 15 16 15 15 15 15 14 13 13 12 12 12 11 11 11 11 11 11 10 10 10 10 10 9 9 9
7 7 11 12 12 10 7 7 8 8 8 6 4 6 6 7 8 10 11 11 12 12 12 13 14 14 14 14 14 14 14 13 12 12 11 11 11 11 10 10 10 10 10 9 9 9 9 8 8
5 6 9 10 12 10 7 6 4 7 6 3 4 5 6 9 10 10 10 10 10 10 10 11 13 13 13 13 14 14 13 13 13 12 12 12 11 10 9 9 9 9 9 8 8 8 8 8 7
5 8 12 12 10 8 7 7 4 2 4 3 2 0 4 12 12 12 11 10 10 9 9 9 10 11 11 12 13 13 13 12 12 11 11 10 8 8 8 8 8 8 8 8 8 8 7 7 6
9 11 13 7 6 5 7 7 6 6 7 6 4 3 8 12 13 14 14 13 12 11 10 9 9 10 10 10 10 10 9 10 9 9 9 7 6 6 6 8 8 7 7 7 7 6 6 4 4
9 11 9 6 4 4 5 5 5 7 7 7 8 9 12 13 13 14 13 13 12 11 10 9 8 9 9 8 8 7 7 7 7 8 8 6 6 6 5 5 6 5 6 5 5 5 3 2 2
8 9 7 5 4 4 5 5 5 7 4 1 4 8 12 14 14 14 13 12 11 11 10 9 8 8 8 8 7 7 6 6 6 6 7 6 4 4 4 4 4 4 3 3 3 2 3 2 2
12 8 7 5 4 5 5 6 5 6 4 2 4 8 11 13 13 11 11 10 10 10 10 9 8 8 7 7 6 6 6 6 6 6 6 6 5 4 4 3 3 3 3 3 2 2 2 2 1
9 8 6 6 6 6 7 6 6 6 4 4 6 9 10 11 12 11 11 11 11 11 10 9 9 8 8 6 6 6 6 6 6 5 6 6 5 4 4 3 3 3 3 2 2 2 1 1 1
7 9 8 8 8 6 6 9 10 7 5 6 7 8 8 9 10 11 11 11 11 10 10 9 8 8 8 7 6 5 6 6 5 5 6 5 5 5 4 3 3 3 3 3 2 2 1 1 1
8 10 11 9 9 7 9 13 8 5 7 8 7 7 8 8 9 9 10 10 10 9 9 8 7 7 7 7 6 5 5 6 5 5 5 5 5 5 4 3 3 3 3 2 2 1 1 1 2
9 12 14 9 9 8 11 11 6 5 7 8 8 8 8 8 8 8 9 9 9 9 9 9 8 8 7 6 5 5 5 5 4 5 4 5 5 5 4 3 3 3 2 2 2 2 2 2 2
11 13 12 11 8 9 12 12 7 5 7 9 9 8 8 8 8 7 7 8 8 9 9 9 8 8 7 6 5 4 4 4 4 4 4 4 4 5 4 3 3 3 2 2 2 2 1 1 2
9 11 11 8 5 9 12 12 10 7 7 9 8 8 8 8 6 5 6 6 7 8 9 9 8 8 7 5 5 4 4 3 3 3 4 5 5 5 4 3 3 3 3 3 3 2 2 1 1
8 10 9 5 3 6 9 12 11 9 9 8 8 8 7 7 5 5 6 6 7 9 9 9 9 8 7 6 5 4 4 3 3 3 3 4 5 5 4 4 3 3 3 3 3 2 2 1 1
11 11 9 6 3 4 5 9 10 8 7 7 7 7 6 6 7 6 6 7 7 8 9 8 9 9 8 7 5 5 4 3 3 3 3 4 4 4 4 4 3 3 3 3 3 3 3 2 2
10 9 8 7 6 5 6 6 8 7 8 7 7 6 6 6 6 6 6 7 8 8 8 8 8 8 8 8 7 8 6 5 4 4 3 3 4 4 4 4 3 3 3 3 3 3 3 3 3
6 7 7 7 6 5 7 7 6 6 8 8 7 6 5 5 5 5 5 6 6 6 7 7 8 8 8 8 8 8 6 4 3 3 4 4 3 3 3 3 3 3 3 3 3 3 4 4 4
6 6 4 4 4 7 10 10 7 6 7 6 4 4 3 3 3 4 4 4 4 5 5 6 7 7 7 8 8 8 7 6 5 5 4 3 3 2 3 3 3 3 2 3 3 4 5 4 5
7 8 5 6 7 8 7 8 6 3 2 4 4 2 1 2 2 3 4 4 4 5 5 6 7 7 7 7 7 7 7 7 6 6 5 4 3 2 3 3 3 2 2 3 3 3 4 4 5
10 9 6 7 7 4 6 8 3 1 1 0 1 1 1 1 1 2 3 3 4 5 5 6 6 6 6 6 6 6 5 4 4 5 4 4 3 3 3 3 3 2 2 2 3 3 3 3 4
7 8 3 1 2 4 6 3 3 2 2 2 1 2 2 2 1 2 2 2 3 4 5 6 6 6 5 6 5 5 4 4 4 4 4 3 2 2 3 3 3 2 2 2 2 2 3 3 3
3 5 4 4 6 6 6 6 4 4 2 2 2 2 2 2 2 2 2 2 2 3 4 5 5 5 5 5 4 4 4 3 3 4 3 3 2 2 2 2 2 2 2 2 2 2 2 2 2
3 5 4 4 4 5 5 3 2 3 2 1 1 1 2 3 2 2 2 3 3 4 4 5 5 5 4 4 4 4 4 3 3 3 3 3 2 3 2 2 2 2 1 1 1 2 2 2 3
3 5 6 5 4 3 3 1 3 2 1 1 2 2 2 3 3 3 3 3 4 4 4 4 4 4 4 4 4 4 4 4 4 3 3 3 3 2 2 2 1 1 1 1 1 2 2 3 3
Wind_Direction
251 228 210 204 207 221 229 213 203 179 183 182 172 187 195 187 189 104 106 147 145 147 146 144 138 136 134 131 128 126 125 123 122 119 118 116 114 110 106 104 102 101 101 99 97 96 95 93 89
212 194 198 207 220 219 221 212 203 190 150 145 165 188 189 176 64 102 134 146 148 146 146 146 137 136 135 133 131 129 128 125 124 122 120 119 116 111 108 104 101 99 100 100 98 96 95 94 91
185 210 206 204 221 226 217 198 200 174 165 173 166 184 193 133 119 126 136 149 149 146 145 140 138 137 135 134 133 130 129 128 127 125 123 121 118 114 110 107 103 101 100 101 100 98 95 94 94
187 188 210 223 221 224 229 160 169 173 174 190 179 156 139 78 107 124 140 151 149 147 145 141 141 139 138 137 136 132 129 128 128 127 125 123 120 116 113 110 106 104 102 101 101 100 98 97 97
204 200 206 221 225 221 223 201 175 184 178 177 185 166 141 102 107 133 145 151 150 148 145 144 142 141 140 140 138 135 133 130 128 127 125 124 123 119 115 113 111 109 107 106 103 103 102 100 98
192 206 215 221 218 217 215 204 198 200 185 176 183 167 134 116 134 141 147 152 151 148 146 145 142 142 141 141 140 138 136 135 132 130 127 123 121 119 118 116 114 112 110 109 109 107 106 104 101
207 206 223 225 220 216 208 197 207 200 190 181 180 166 145 141 141 145 147 149 148 148 149 148 151 148 143 141 140 138 137 136 133 129 127 124 120 119 117 116 118 116 115 112 111 111 111 109 107
224 215 221 220 219 215 192 185 204 210 199 158 195 186 163 154 147 146 144 146 146 150 153 154 156 156 154 149 142 139 138 136 133 129 126 125 124 122 120 122 117 117 118 116 114 113 110 107 107
210 221 220 214 216 209 184 188 179 193 175 176 201 260 122 141 150 151 151 154 153 155 158 158 160 160 158 155 149 146 142 140 138 134 132 138 140 137 131 122 117 118 119 118 117 115 114 112 112
204 222 224 219 217 203 185 196 179 178 188 192 182 151 142 152 163 167 169 169 168 166 166 165 163 164 161 156 156 157 153 151 152 148 149 151 144 137 131 122 123 122 123 122 120 120 127 144 133
207 225 223 221 220 213 195 196 192 198 206 205 191 167 161 166 174 179 180 178 175 171 168 171 166 164 165 160 158 155 154 155 155 153 154 152 144 140 139 138 140 143 147 144 136 146 147 147 131
211 223 222 216 211 212 209 198 202 216 225 200 190 170 171 177 183 187 185 182 178 175 175 175 173 169 170 165 160 159 157 158 156 158 162 159 152 150 145 148 151 158 161 158 161 164 150 151 151
216 214 217 223 222 223 219 219 228 234 241 219 178 177 185 187 188 191 188 184 183 182 180 178 177 174 170 168 164 163 162 163 162 163 169 168 162 159 154 155 157 166 168 169 174 179 167 168 160
211 209 212 222 223 227 225 236 238 237 221 192 183 189 193 193 192 188 188 189 187 186 183 179 181 178 171 170 172 170 166 164 165 164 171 174 171 165 163 163 163 172 179 183 193 196 199 210 213
202 211 223 225 220 215 217 238 233 232 210 203 198 197 198 200 198 197 195 193 192 188 184 181 180 180 176 172 170 169 168 167 163 163 170 174 174 175 173 175 177 183 187 192 199 195 213 239 247
199 210 219 214 212 213 216 238 226 215 208 214 211 205 203 206 207 205 200 197 193 189 185 179 176 177 177 171 167 164 169 169 165 164 167 176 181 184 184 183 187 191 189 188 197 208 218 242 258
202 213 217 213 207 206 216 241 231 214 217 224 221 215 210 210 211 208 204 200 193 189 185 179 174 175 173 168 164 161 164 167 167 166 168 178 184 187 188 187 188 191 188 189 196 213 234 251 265
202 211 215 214 201 208 220 237 241 230 226 229 225 220 215 214 213 209 204 199 192 188 185 180 172 171 165 161 156 153 156 163 164 165 169 174 178 182 184 182 188 189 186 191 196 203 225 259 271
215 215 217 220 213 217 226 241 245 237 231 230 227 223 220 219 214 202 198 195 188 186 185 181 175 170 165 162 165 166 168 167 167 165 171 173 176 177 179 180 187 194 198 200 200 200 214 243 258
212 214 218 216 214 225 235 249 251 241 233 231 228 225 221 218 210 200 196 193 194 191 189 185 183 177 176 175 172 173 165 169 167 163 170 176 176 177 181 188 190 197 199 204 204 201 220 231 233
216 214 211 206 210 216 237 249 234 226 222 226 226 223 224 222 217 205 200 197 197 196 192 188 187 182 180 172 156 143 139 145 166 174 178 183 180 180 185 190 196 201 206 212 212 210 215 229 232
220 212 205 196 201 215 212 243 228 213 213 218 222 220 225 225 223 212 203 202 200 200 192 188 185 182 178 172 168 169 174 180 190 187 184 176 177 180 185 187 193 199 208 214 218 223 231 232 235
214 193 196 205 215 233 218 233 235 202 215 219 220 220 227 226 220 213 206 202 198 192 186 184 179 177 177 177 177 181 185 184 174 172 173 170 168 176 180 182 186 194 205 213 217 224 229 232 239
168 159 170 194 210 231 218 219 235 207 215 214 210 220 233 226 212 202 189 181 178 174 173 174 173 173 174 176 179 183 182 176 173 177 174 172 169 172 180 186 192 197 204 213 219 225 229 233 238
177 167 173 195 209 229 193 216 236 212 221 231 227 233 257 209 190 180 173 168 166 165 167 168 168 168 170 173 179 183 184 183 184 184 182 179 178 184 190 190 196 200 209 217 222 228 234 235 237
195 196 199 203 208 200 186 218 208 117 62 359 233 161 87 100 147 162 170 170 164 163 163 162 163 163 163 167 172 175 175 181 183 183 181 184 186 189 189 191 193 199 206 214 216 227 235 240 241
185 209 237 213 188 205 203 211 239 154 113 65 68 99 98 81 94 117 141 155 158 160 164 164 160 157 158 160 159 165 169 171 167 167 169 173 171 167 176 184 188 189 196 210 216 227 232 238 244
216 181 179 194 189 214 206 212 204 170 156 76 66 88 82 73 77 90 113 129 142 152 157 157 155 153 150 148 150 154 158 158 155 153 151 153 151 148 163 173 175 177 187 202 213 229 238 237 247
167 185 201 202 235 219 207 188 85 153 138 122 101 87 88 75 72 77 87 107 120 130 140 143 141 137 134 135 137 138 137 140 141 142 143 143 147 151 157 163 166 176 191 207 218 234 238 241 250
215 208 199 199 207 229 227 168 64 111 53 100 123 104 88 82 73 77 85 94 103 112 123 128 129 129 125 125 126 124 123 124 125 126 128 136 143 141 145 148 161 181 202 213 233 250 254 252 257
Height
1510 1512 1514 1518 1517 1512 1504 1500 1501 1504 1505 1507 1508 1508 1507 1507 1509 1515 1516 1516 1518 1521 1524 1526 1529 1531 1533 1535 1537 1538 1539 1540 1541 1542 1542 1543 1543 1544 1544 1545 1545 1545 1546 1546 1546 1546 1546 1546 1546
1511 1513 1517 1517 1510 1507 1501 1498 1501 1501 1505 1508 1509 1509 1509 1510 1512 1513 1513 1515 1519 1522 1525 1527 1529 1532 1534 1536 1537 1539 1540 1541 1542 1543 1543 1544 1544 1545 1545 1546 1546 1546 1547 1547 1547 1547 1547 1547 1547
1510 1513 1516 1511 1505 1499 1496 1497 1499 1504 1506 1507 1508 1509 1510 1511 1512 1513 1513 1515 1519 1523 1525 1527 1530 1532 1534 1536 1538 1539 1541 1542 1543 1543 1544 1545 1545 1546 1546 1547 1547 1547 1547 1548 1548 1548 1548 1548 1548
1511 1514 1514 1508 1501 1497 1496 1498 1501 1503 1506 1507 1508 1509 1511 1511 1512 1513 1513 1516 1520 1523 1526 1528 1530 1533 1535 1537 1538 1540 1541 1542 1543 1544 1544 1545 1546 1546 1547 1547 1548 1548 1548 1548 1549 1549 1549 1549 1549
1511 1511 1507 1503 1498 1497 1499 1501 1503 1502 1503 1506 1507 1507 1510 1511 1510 1512 1514 1517 1521 1524 1526 1529 1531 1533 1535 1537 1539 1540 1542 1543 1544 1544 1545 1546 1546 1547 1547 1548 1548 1548 1549 1549 1549 1549 1549 1549 1550
1510 1506 1501 1497 1495 1496 1499 1502 1503 1502 1503 1505 1506 1507 1510 1510 1511 1513 1515 1518 1522 1524 1527 1529 1531 1534 1536 1537 1539 1540 1542 1543 1544 1545 1545 1546 1547 1547 1548 1548 1548 1549 1549 1549 1550 1550 1550 1550 1550
1507 1502 1495 1492 1493 1495 1498 1501 1501 1500 1502 1504 1506 1506 1509 1511 1511 1513 1516 1519 1522 1524 1527 1529 1532 1534 1536 1538 1539 1541 1542 1543 1544 1545 1546 1546 1547 1548 1548 1549 1549 1549 1549 1550 1550 1550 1551 1551 1551
1504 1502 1496 1493 1493 1493 1497 1500 1501 1501 1502 1505 1506 1505 1508 1510 1511 1513 1516 1519 1522 1524 1527 1529 1532 1534 1536 1537 1539 1540 1542 1543 1544 1545 1546 1547 1547 1548 1548 1549 1549 1549 1550 1550 1550 1550 1551 1551 1551
1504 1501 1493 1491 1492 1492 1496 1498 1501 1501 1503 1504 1505 1506 1507 1508 1510 1513 1516 1519 1521 1524 1526 1529 1531 1533 1535 1537 1538 1540 1541 1543 1544 1545 1546 1546 1547 1548 1548 1549 1549 1550 1550 1550 1550 1550 1551 1551 1551
1501 1495 1490 1491 1492 1493 1496 1497 1499 1500 1501 1502 1504 1505 1506 1508 1510 1513 1515 1517 1520 1523 1525 1528 1530 1532 1534 1536 1538 1539 1541 1542 1543 1544 1545 1546 1547 1547 1548 1548 1549 1549 1550 1550 1550 1550 1550 1551 1551
1496 1492 1491 1494 1495 1495 1495 1497 1498 1498 1498 1499 1501 1503 1505 1507 1510 1512 1515 1517 1520 1522 1524 1527 1529 1531 1533 1535 1536 1538 1540 1541 1542 1543 1544 1545 1546 1547 1547 1548 1548 1549 1549 1549 1549 1550 1550 1550 1550
1494 1493 1493 1494 1495 1496 1496 1496 1497 1497 1497 1499 1500 1502 1503 1506 1508 1511 1514 1516 1519 1521 1523 1525 1528 1529 1532 1533 1535 1537 1538 1540 1541 1542 1543 1544 1545 1546 1546 1547 1548 1548 1548 1549 1549 1549 1549 1549 1549
1491 1492 1494 1495 1495 1496 1496 1496 1496 1496 1497 1497 1498 1501 1503 1505 1507 1510 1513 1515 1517 1519 1521 1524 1526 1528 1530 1532 1534 1535 1537 1539 1540 1541 1542 1543 1544 1545 1545 1546 1547 1547 1547 1548 1548 1548 1548 1548 1548
1489 1491 1493 1494 1494 1494 1495 1494 1496 1494 1496 1496 1497 1499 1501 1503 1505 1508 1510 1512 1515 1517 1520 1522 1524 1526 1528 1530 1532 1534 1536 1537 1538 1539 1541 1542 1543 1543 1544 1545 1545 1546 1546 1546 1547 1547 1547 1547 1547
1490 1491 1491 1491 1492 1493 1494 1492 1492 1493 1494 1495 1496 1497 1499 1501 1503 1505 1508 1510 1513 1515 1518 1520 1522 1524 1526 1529 1530 1532 1534 1535 1537 1538 1539 1540 1541 1542 1543 1543 1544 1544 1545 1545 1545 1546 1546 1546 1545
1488 1487 1487 1487 1489 1491 1494 1486 1487 1491 1492 1493 1494 1496 1497 1499 1501 1503 1505 1508 1511 1513 1515 1518 1520 1522 1524 1526 1528 1530 1532 1533 1535 1536 1537 1538 1539 1540 1541 1542 1542 1543 1543 1543 1544 1544 1544 1544 1544
1484 1482 1480 1484 1486 1488 1489 1484 1486 1489 1491 1491 1492 1493 1495 1497 1498 1500 1502 1505 1508 1510 1513 1515 1517 1520 1522 1524 1526 1528 1530 1531 1533 1534 1535 1536 1537 1538 1539 1540 1541 1541 1541 1542 1542 1542 1542 1542 1542
1478 1477 1478 1479 1483 1485 1485 1483 1485 1488 1489 1489 1490 1491 1492 1494 1495 1498 1500 1502 1505 1507 1510 1513 1515 1517 1519 1522 1524 1525 1527 1529 1531 1532 1533 1534 1535 1536 1537 1538 1539 1539 1539 1539 1540 1540 1540 1540 1539
1475 1476 1477 1479 1483 1484 1482 1482 1482 1485 1486 1486 1487 1488 1490 1491 1493 1494 1496 1499 1502 1504 1507 1509 1512 1514 1516 1518 1521 1522 1524 1526 1528 1530 1531 1532 1533 1534 1535 1536 1536 1537 1537 1537 1537 1537 1537 1537 1537
1478 1477 1477 1481 1484 1484 1481 1480 1479 1481 1483 1484 1484 1485 1487 1488 1490 1491 1493 1495 1498 1500 1503 1506 1508 1511 1513 1516 1518 1520 1522 1524 1526 1527 1528 1530 1531 1532 1533 1533 1534 1534 1535 1535 1535 1535 1535 1534 1534
1477 1476 1476 1479 1483 1483 1482 1477 1475 1477 1480 1482 1482 1483 1484 1485 1486 1488 1489 1491 1494 1497 1499 1502 1505 1507 1510 1513 1515 1518 1519 1521 1523 1524 1526 1527 1528 1529 1530 1531 1531 1532 1532 1532 1532 1532 1532 1532 1532
1476 1475 1477 1479 1480 1479 1481 1475 1468 1471 1475 1477 1479 1480 1481 1482 1483 1484 1486 1487 1490 1493 1496 1498 1501 1504 1507 1510 1512 1514 1516 1518 1520 1521 1523 1524 1526 1527 1527 1528 1529 1529 1529 1529 1529 1530 1530 1530 1529
1473 1476 1478 1479 1479 1481 1478 1478 1465 1469 1470 1472 1475 1477 1478 1479 1480 1481 1482 1484 1486 1489 1492 1495 1497 1500 1503 1506 1509 1511 1514 1515 1517 1519 1520 1521 1522 1523 1524 1525 1526 1526 1526 1526 1526 1526 1526 1526 1526
1476 1478 1479 1480 1479 1481 1471 1472 1462 1464 1466 1468 1472 1475 1476 1476 1477 1478 1479 1481 1483 1485 1488 1491 1494 1497 1500 1503 1506 1508 1510 1512 1514 1516 1517 1518 1519 1520 1521 1522 1523 1523 1523 1523 1523 1523 1523 1523 1522
1475 1476 1479 1480 1478 1469 1467 1468 1462 1464 1468 1470 1472 1473 1474 1475 1475 1475 1477 1478 1480 1482 1484 1487 1490 1493 1496 1499 1502 1505 1507 1509 1511 1512 1514 1515 1516 1517 1518 1519 1519 1520 1520 1520 1520 1520 1519 1519 1519
1472 1471 1469 1468 1465 1464 1472 1465 1463 1468 1470 1471 1472 1473 1473 1474 1474 1474 1475 1476 1478 1479 1481 1484 1487 1490 1493 1496 1499 1502 1504 1506 1508 1509 1511 1512 1513 1514 1515 1516 1516 1516 1516 1517 1516 1516 1516 1515 1515
1471 1470 1469 1469 1467 1465 1462 1465 1466 1467 1469 1471 1471 1472 1472 1473 1473 1473 1473 1475 1476 1477 1479 1481 1484 1487 1490 1493 1496 1498 1500 1502 1504 1506 1507 1509 1510 1511 1512 1512 1513 1513 1513 1513 1513 1512 1512 1512 1511
1470 1469 1471 1470 1466 1459 1458 1460 1458 1465 1467 1470 1471 1471 1472 1472 1472 1473 1473 1474 1475 1476 1478 1480 1482 1485 1488 1490 1493 1495 1497 1499 1501 1503 1504 1505 1506 1507 1508 1509 1509 1509 1510 1509 1509 1509 1508 1508 1508
1472 1472 1469 1467 1464 1457 1456 1458 1462 1466 1469 1470 1471 1472 1473 1473 1472 1472 1473 1473 1474 1475 1477 1479 1481 1484 1486 1488 1491 1493 1495 1497 1499 1500 1501 1502 1503 1504 1505 1505 1506 1506 1506 1506 1506 1505 1505 1504 1504
1471 1469 1468 1467 1468 1463 1455 1464 1468 1469 1471 1471 1472 1473 1473 1473 1473 1473 1473 1473 1474 1475 1476 1478 1480 1482 1484 1487 1489 1491 1492 1494 1496 1498 1499 1500 1501 1501 1502 1502 1503 1503 1503 1503 1502 1502 1501 1501 1500